User: anonymous   Login
Location: Unspecified
(0.0000°N, 0.0000°E)
Time: 01:26:36
(UTC+00:00)
Language:

NOSS 3-3 (A) - Orbit

View from above orbital plane
View from above orbital plane
View from above satellite
View from above satellite

Ground track
Ground track

The orbit data is extracted from the following two-line orbital elements,

1 28537U 05004A   18344.67668740 0.00000000  00000-0  00000-0 0    01
2 28537  63.4267 247.7992 0314000 357.9847   2.0153 13.40773576    00
Epoch (UTC): 10 December 2018 16:14:25
Eccentricity: 0.0314000
inclination: 63.4267°
perigee height: 871 km
apogee height: 1341 km
right ascension of ascending node: 247.7992°
argument of perigee: 357.9847°
revolutions per day: 13.40773576
mean anomaly at epoch: 2.0153°
orbit number at epoch: 0

The dashed part of the orbit path shows where the satellite is in the earth's shadow,  

DLR